BEIDOU 11

Last updated on Jan. 25, 2020, 4:43 a.m. UTC

1 38091U 12008A   20024.07045977  .00000045  00000-0  00000-0 0  9998
2 38091   1.8510  69.1450 0007456 275.3059 222.6235  1.00276944 29057
UTC
Height (km)
Latitude
Longitude
Inclination
Orbital Period
UTC large
Height (km)
Speed (km/s)
/
Latitude / Longitude
Inclination (degrees)
Orbital Period (minutes)
Azimuth
Elevation
Range (km)
Doppler Factor
iOS Compass Heading
iOS Angle

Next 30 passes for location: Hong Kong

Rise time Rise Azimuth (degrees) Set time Set Azimuth (degrees) Duration Max altitude (degrees)

No matching passes for this satellites